Location: Unspecified
(0.0000°N, 0.0000°E)
Time: 00:06:04
(UTC+00:00)

ISS - Pass Details

Date: 17 February 2020
Orbit: 415 x 422 km, 51.6° (Epoch: 27 February)

Event Time Altitude Azimuth Distance (km) Brightness Sun altitude
Exits shadow 04:39:22 - 185° (S) 1,742 -0.5 -23.1°
Reaches altitude 10° 04:40:07 10° 178° (S) 1,489 -0.8 -22.9°
Maximum altitude 04:42:46 22° 126° (SE) 977 -1.2 -22.3°
Drops below altitude 10° 04:45:24 10° 73° (ENE) 1,487 -0.1 -21.6°
Sets 04:47:48 0° 57° (ENE) 2,349 0.7 -21.1°
